This is the latest recevied weather packets stored in our database for station/object IN3MWE-10. If no packets are shown the sender has not sent any weather packets the latest 10 day(s).
| Time | Temp. | Humidity | Pressure | Rain* | Wind** | Luminosity | Snow |
|---|---|---|---|---|---|---|---|
| 1787924119 | 36.67° C | 23% | 975.8 hPa | - | - | - | - |
| 1787923219 | 41.67° C | 23% | 975.9 hPa | - | - | - | - |
| 1787922319 | 42.78° C | 20% | 975.8 hPa | - | - | - | - |
| 1787921419 | 42.22° C | 23% | 975.9 hPa | - | - | - | - |
| 1787920519 | 40.56° C | 27% | 976.1 hPa | - | - | - | - |
| 1787919619 | 37.78° C | 32% | 976.7 hPa | - | - | - | - |
| 1787918719 | 41.67° C | 26% | 976.8 hPa | - | - | - | - |
| 1787917818 | 39.44° C | 29% | 977.3 hPa | - | - | - | - |
| 1787916918 | 40° C | 33% | 977.6 hPa | - | - | - | - |
| 1787916018 | 39.44° C | 33% | 977.5 hPa | - | - | - | - |
| 1787915118 | 37.78° C | 36% | 977.8 hPa | - | - | - | - |
| 1787914218 | 38.33° C | 34% | 978.1 hPa | - | - | - | - |
| 1787913318 | 38.33° C | 35% | 978.1 hPa | - | - | - | - |
| 1787912418 | 37.22° C | 38% | 978.5 hPa | - | - | - | - |
| 1787911517 | 36.11° C | 39% | 978.9 hPa | - | - | - | - |
| 1787910617 | 35.56° C | 42% | 979.4 hPa | - | - | - | - |
| 1787909717 | 33.89° C | 48% | 979.3 hPa | - | - | - | - |
| 1787908817 | 33.33° C | 48% | 979.4 hPa | - | - | - | - |
| 1787907917 | 32.78° C | 51% | 980.1 hPa | - | - | - | - |
| 1787907017 | 31.11° C | 56% | 980.5 hPa | - | - | - | - |
| 1787906117 | 28.89° C | 62% | 980.8 hPa | - | - | - | - |
| 1787905216 | 30.56° C | 59% | 980.9 hPa | - | - | - | - |
| 1787904316 | 29.44° C | 64% | 981.3 hPa | - | - | - | - |
| 1787903416 | 27.78° C | 69% | 982.1 hPa | - | - | - | - |
| 1787902516 | 25.56° C | 84% | 982.5 hPa | - | - | - | - |
* Rain since midnight (hover to see other rain measurements)
** Current wind speed in m/s (hover to see current wind gust speed)